Time,TemperatureF,DewpointF,PressureIn,WindDirection,WindDirectionDegrees,WindSpeedMPH,WindSpeedGustMPH,Humidity,HourlyPrecipIn,Conditions,Clouds,dailyrainin,SolarRadiationWatts/m^2,SoftwareType,DateUTC
2013-01-12 00:00:00,59.6,53.8,29.72,SE,135,9.0,-999.0,81,0.00,,,0.00,0,Wunderground v.1.15,2013-01-12 06:00:00,
2013-01-12 00:05:00,59.6,53.8,29.72,SE,135,9.0,-999.0,81,0.00,,,0.00,0,Wunderground v.1.15,2013-01-12 06:05:00,
2013-01-12 00:10:00,59.7,53.9,29.71,SE,135,10.0,-999.0,81,0.00,,,0.00,0,Wunderground v.1.15,2013-01-12 06:10:00,
2013-01-12 00:15:00,59.7,53.9,29.71,SSE,158,12.0,-999.0,81,0.00,,,0.00,0,Wunderground v.1.15,2013-01-12 06:15:00,
2013-01-12 00:20:00,59.7,53.9,29.71,SSE,158,11.0,-999.0,81,0.00,,,0.00,0,Wunderground v.1.15,2013-01-12 06:20:00,
2013-01-12 00:25:00,59.6,53.8,29.71,ESE,113,7.0,-999.0,81,0.00,,,0.00,0,Wunderground v.1.15,2013-01-12 06:25:00,
2013-01-12 00:30:00,59.5,53.7,29.71,SE,135,11.0,-999.0,81,0.00,,,0.00,0,Wunderground v.1.15,2013-01-12 06:30:00,
2013-01-12 00:35:00,59.5,53.7,29.71,SE,135,11.0,-999.0,81,0.00,,,0.00,0,Wunderground v.1.15,2013-01-12 06:35:00,
2013-01-12 00:40:00,59.4,53.6,29.71,SE,135,7.0,-999.0,81,0.00,,,0.00,0,Wunderground v.1.15,2013-01-12 06:40:00,
2013-01-12 00:45:00,59.2,53.4,29.70,SSE,158,10.0,-999.0,81,0.00,,,0.00,0,Wunderground v.1.15,2013-01-12 06:45:00,
2013-01-12 00:50:00,59.2,53.4,29.70,SE,135,9.0,-999.0,81,0.00,,,0.00,0,Wunderground v.1.15,2013-01-12 06:50:00,
2013-01-12 00:55:00,59.2,53.4,29.70,SE,135,11.0,-999.0,81,0.00,,,0.00,0,Wunderground v.1.15,2013-01-12 06:55:00,
2013-01-12 01:00:00,58.9,53.1,29.70,SSE,158,11.0,-999.0,81,0.00,,,0.00,0,Wunderground v.1.15,2013-01-12 07:00:00,
2013-01-12 01:05:00,59.1,53.3,29.70,SSE,158,14.0,-999.0,81,0.00,,,0.00,0,Wunderground v.1.15,2013-01-12 07:05:00,
2013-01-12 01:10:00,59.2,52.7,29.70,SE,135,13.0,-999.0,79,0.00,,,0.00,0,Wunderground v.1.15,2013-01-12 07:10:00,
2013-01-12 01:15:00,59.2,52.7,29.70,SE,135,12.0,-999.0,79,0.00,,,0.00,0,Wunderground v.1.15,2013-01-12 07:15:00,
2013-01-12 01:20:00,59.3,52.4,29.69,SE,135,9.0,-999.0,78,0.00,,,0.00,0,Wunderground v.1.15,2013-01-12 07:20:00,
2013-01-12 01:25:00,59.4,52.5,29.70,SE,135,10.0,-999.0,78,0.00,,,0.00,0,Wunderground v.1.15,2013-01-12 07:25:00,
2013-01-12 01:30:00,59.2,52.7,29.69,SE,135,10.0,-999.0,79,0.00,,,0.00,0,Wunderground v.1.15,2013-01-12 07:30:00,
2013-01-12 01:35:00,59.1,52.2,29.69,SE,135,13.0,-999.0,78,0.00,,,0.00,0,Wunderground v.1.15,2013-01-12 07:35:00,
2013-01-12 01:40:00,59.0,52.1,29.69,SE,135,12.0,-999.0,78,0.00,,,0.00,0,Wunderground v.1.15,2013-01-12 07:40:00,
2013-01-12 01:45:00,59.1,51.9,29.69,SE,135,10.0,-999.0,77,0.00,,,0.00,0,Wunderground v.1.15,2013-01-12 07:45:00,
2013-01-12 01:50:00,59.2,51.6,29.69,SE,135,10.0,-999.0,76,0.00,,,0.00,0,Wunderground v.1.15,2013-01-12 07:50:00,
2013-01-12 01:55:00,59.4,51.5,29.68,SE,135,10.0,-999.0,75,0.00,,,0.00,0,Wunderground v.1.15,2013-01-12 07:55:00,
2013-01-12 02:00:00,59.9,51.6,29.69,ESE,113,10.0,-999.0,74,0.00,,,0.00,0,Wunderground v.1.15,2013-01-12 08:00:00,
2013-01-12 02:05:00,60.0,51.7,29.69,SE,135,8.0,-999.0,74,0.00,,,0.00,0,Wunderground v.1.15,2013-01-12 08:05:00,
2013-01-12 02:10:00,59.7,51.4,29.69,NE,45,4.0,-999.0,74,0.00,,,0.00,0,Wunderground v.1.15,2013-01-12 08:10:00,
2013-01-12 02:15:00,59.7,51.8,29.69,SE,135,6.0,-999.0,75,0.00,,,0.00,0,Wunderground v.1.15,2013-01-12 08:15:00,
2013-01-12 02:20:00,59.9,51.6,29.68,SE,135,10.0,-999.0,74,0.00,,,0.00,0,Wunderground v.1.15,2013-01-12 08:20:00,
2013-01-12 02:25:00,60.0,51.7,29.69,SE,135,3.0,-999.0,74,0.00,,,0.00,0,Wunderground v.1.15,2013-01-12 08:25:00,
2013-01-12 02:30:00,59.7,52.1,29.69,NE,45,1.0,-999.0,76,0.00,,,0.00,0,Wunderground v.1.15,2013-01-12 08:30:00,
2013-01-12 02:35:00,59.6,52.0,29.69,SE,135,5.0,-999.0,76,0.00,,,0.00,0,Wunderground v.1.15,2013-01-12 08:35:00,
2013-01-12 02:40:00,59.3,52.4,29.69,East,90,1.0,-999.0,78,0.00,,,0.00,0,Wunderground v.1.15,2013-01-12 08:40:00,
2013-01-12 02:45:00,58.9,52.1,29.69,ENE,68,3.0,-999.0,78,0.00,,,0.00,0,Wunderground v.1.15,2013-01-12 08:45:00,
2013-01-12 02:50:00,58.9,52.4,29.69,SE,135,8.0,-999.0,79,0.00,,,0.00,0,Wunderground v.1.15,2013-01-12 08:50:00,
2013-01-12 02:55:00,58.9,52.1,29.69,ESE,113,4.0,-999.0,78,0.00,,,0.00,0,Wunderground v.1.15,2013-01-12 08:55:00,
2013-01-12 03:00:00,58.9,52.4,29.69,SE,135,13.0,-999.0,79,0.00,,,0.00,0,Wunderground v.1.15,2013-01-12 09:00:00,
2013-01-12 03:05:00,58.9,52.4,29.69,SE,135,9.0,-999.0,79,0.00,,,0.00,0,Wunderground v.1.15,2013-01-12 09:05:00,
2013-01-12 03:10:00,58.7,52.5,29.69,SE,135,11.0,-999.0,80,0.00,,,0.00,0,Wunderground v.1.15,2013-01-12 09:10:00,
2013-01-12 03:15:00,58.5,52.4,29.69,SE,135,12.0,-999.0,80,0.00,,,0.00,0,Wunderground v.1.15,2013-01-12 09:15:00,
2013-01-12 03:20:00,58.6,52.1,29.68,SE,135,12.0,-999.0,79,0.00,,,0.00,0,Wunderground v.1.15,2013-01-12 09:20:00,
2013-01-12 03:25:00,58.7,52.2,29.69,SE,135,10.0,-999.0,79,0.00,,,0.00,0,Wunderground v.1.15,2013-01-12 09:25:00,
2013-01-12 03:30:00,58.6,52.1,29.68,SE,135,9.0,-999.0,79,0.00,,,0.00,0,Wunderground v.1.15,2013-01-12 09:30:00,
2013-01-12 03:35:00,58.5,52.0,29.69,SE,135,11.0,-999.0,79,0.00,,,0.00,0,Wunderground v.1.15,2013-01-12 09:35:00,
2013-01-12 03:40:00,58.5,52.0,29.69,SE,135,10.0,-999.0,79,0.00,,,0.00,0,Wunderground v.1.15,2013-01-12 09:40:00,
2013-01-12 03:45:00,58.5,52.0,29.68,SE,135,13.0,-999.0,79,0.00,,,0.00,0,Wunderground v.1.15,2013-01-12 09:45:00,
2013-01-12 03:50:00,58.8,52.6,29.69,SE,135,17.0,-999.0,80,0.00,,,0.00,0,Wunderground v.1.15,2013-01-12 09:50:00,
2013-01-12 03:55:00,58.9,52.1,29.69,SE,135,19.0,-999.0,78,0.00,,,0.00,0,Wunderground v.1.15,2013-01-12 09:55:00,
2013-01-12 04:00:00,59.2,52.0,29.69,SE,135,22.0,-999.0,77,0.00,,,0.00,0,Wunderground v.1.15,2013-01-12 10:00:00,
2013-01-12 04:05:00,59.4,51.8,29.69,SE,135,17.0,-999.0,76,0.00,,,0.00,0,Wunderground v.1.15,2013-01-12 10:05:00,
2013-01-12 04:10:00,59.5,51.9,29.68,SE,135,17.0,-999.0,76,0.00,,,0.00,0,Wunderground v.1.15,2013-01-12 10:10:00,
2013-01-12 04:15:00,59.5,51.6,29.68,SE,135,12.0,-999.0,75,0.00,,,0.00,0,Wunderground v.1.15,2013-01-12 10:15:00,
2013-01-12 04:20:00,59.6,51.7,29.69,SE,135,14.0,-999.0,75,0.00,,,0.00,0,Wunderground v.1.15,2013-01-12 10:20:00,
2013-01-12 04:25:00,59.7,51.8,29.68,SE,135,16.0,-999.0,75,0.00,,,0.00,0,Wunderground v.1.15,2013-01-12 10:25:00,
2013-01-12 04:30:00,59.7,51.8,29.69,SE,135,14.0,-999.0,75,0.00,,,0.00,0,Wunderground v.1.15,2013-01-12 10:30:00,
2013-01-12 04:35:00,59.6,51.7,29.68,SE,135,9.0,-999.0,75,0.00,,,0.00,0,Wunderground v.1.15,2013-01-12 10:35:00,
2013-01-12 04:40:00,59.3,51.7,29.69,SE,135,10.0,-999.0,76,0.00,,,0.00,0,Wunderground v.1.15,2013-01-12 10:40:00,
2013-01-12 04:45:00,59.3,51.4,29.68,SE,135,9.0,-999.0,75,0.00,,,0.00,0,Wunderground v.1.15,2013-01-12 10:45:00,
2013-01-12 04:50:00,59.6,51.3,29.69,SE,135,14.0,-999.0,74,0.00,,,0.00,0,Wunderground v.1.15,2013-01-12 10:50:00,
2013-01-12 04:55:00,59.8,51.5,29.69,SE,135,14.0,-999.0,74,0.00,,,0.00,0,Wunderground v.1.15,2013-01-12 10:55:00,
2013-01-12 05:00:00,60.0,51.7,29.69,SE,135,15.0,-999.0,74,0.00,,,0.00,0,Wunderground v.1.15,2013-01-12 11:00:00,
2013-01-12 05:05:00,60.0,52.1,29.69,SE,135,12.0,-999.0,75,0.00,,,0.00,0,Wunderground v.1.15,2013-01-12 11:05:00,
2013-01-12 05:10:00,60.0,52.1,29.68,SE,135,12.0,-999.0,75,0.00,,,0.00,0,Wunderground v.1.15,2013-01-12 11:10:00,
2013-01-12 05:15:00,60.2,51.9,29.68,SE,135,15.0,-999.0,74,0.00,,,0.00,0,Wunderground v.1.15,2013-01-12 11:15:00,
2013-01-12 05:20:00,60.6,52.3,29.69,SE,135,19.0,-999.0,74,0.00,,,0.00,0,Wunderground v.1.15,2013-01-12 11:20:00,
2013-01-12 05:25:00,60.7,52.0,29.69,SE,135,16.0,-999.0,73,0.00,,,0.00,0,Wunderground v.1.15,2013-01-12 11:25:00,
2013-01-12 05:30:00,60.7,52.0,29.70,SE,135,17.0,-999.0,73,0.00,,,0.00,0,Wunderground v.1.15,2013-01-12 11:30:00,
2013-01-12 05:35:00,60.6,51.9,29.70,SE,135,16.0,-999.0,73,0.00,,,0.00,0,Wunderground v.1.15,2013-01-12 11:35:00,
2013-01-12 05:40:00,60.6,52.3,29.70,SE,135,15.0,-999.0,74,0.00,,,0.00,0,Wunderground v.1.15,2013-01-12 11:40:00,
2013-01-12 05:45:00,60.7,52.0,29.71,SE,135,15.0,-999.0,73,0.00,,,0.00,0,Wunderground v.1.15,2013-01-12 11:45:00,
2013-01-12 05:50:00,60.7,52.4,29.71,SE,135,16.0,-999.0,74,0.00,,,0.00,0,Wunderground v.1.15,2013-01-12 11:50:00,
2013-01-12 05:55:00,60.6,52.3,29.71,SE,135,15.0,-999.0,74,0.00,,,0.00,0,Wunderground v.1.15,2013-01-12 11:55:00,
2013-01-12 06:00:00,60.3,52.3,29.71,SE,135,13.0,-999.0,75,0.00,,,0.00,3,Wunderground v.1.15,2013-01-12 12:00:00,
2013-01-12 06:05:00,60.0,52.1,29.71,SE,135,14.0,-999.0,75,0.00,,,0.00,9,Wunderground v.1.15,2013-01-12 12:05:00,
2013-01-12 06:10:00,59.7,52.1,29.71,SE,135,16.0,-999.0,76,0.00,,,0.00,12,Wunderground v.1.15,2013-01-12 12:10:00,
2013-01-12 06:15:00,59.4,52.2,29.71,SE,135,15.0,-999.0,77,0.00,,,0.00,16,Wunderground v.1.15,2013-01-12 12:15:00,
2013-01-12 06:20:00,59.2,52.3,29.72,SE,135,15.0,-999.0,78,0.00,,,0.00,19,Wunderground v.1.15,2013-01-12 12:20:00,
2013-01-12 06:25:00,59.1,51.9,29.71,SE,135,17.0,-999.0,77,0.00,,,0.00,21,Wunderground v.1.15,2013-01-12 12:25:00,
2013-01-12 06:30:00,59.2,52.0,29.72,SE,135,14.0,-999.0,77,0.00,,,0.00,24,Wunderground v.1.15,2013-01-12 12:30:00,
2013-01-12 06:35:00,59.2,52.0,29.73,SE,135,15.0,-999.0,77,0.00,,,0.00,33,Wunderground v.1.15,2013-01-12 12:35:00,
2013-01-12 06:40:00,59.3,52.1,29.72,SE,135,13.0,-999.0,77,0.00,,,0.00,64,Wunderground v.1.15,2013-01-12 12:40:00,
2013-01-12 06:45:00,59.4,52.2,29.73,SE,135,13.0,-999.0,77,0.00,,,0.00,82,Wunderground v.1.15,2013-01-12 12:45:00,
2013-01-12 06:50:00,59.6,52.4,29.74,SE,135,15.0,-999.0,77,0.00,,,0.00,101,Wunderground v.1.15,2013-01-12 12:50:00,
2013-01-12 06:55:00,59.8,52.6,29.73,SE,135,13.0,-999.0,77,0.00,,,0.00,123,Wunderground v.1.15,2013-01-12 12:55:00,
2013-01-12 07:00:00,60.0,52.4,29.74,SE,135,12.0,-999.0,76,0.00,,,0.00,142,Wunderground v.1.15,2013-01-12 13:00:00,
2013-01-12 07:05:00,60.3,52.3,29.74,SE,135,14.0,-999.0,75,0.00,,,0.00,164,Wunderground v.1.15,2013-01-12 13:05:00,
2013-01-12 07:10:00,60.3,52.7,29.74,SE,135,14.0,-999.0,76,0.00,,,0.00,187,Wunderground v.1.15,2013-01-12 13:10:00,
2013-01-12 07:15:00,60.3,52.7,29.74,SE,135,13.0,-999.0,76,0.00,,,0.00,211,Wunderground v.1.15,2013-01-12 13:15:00,
2013-01-12 07:20:00,60.4,52.8,29.74,SE,135,14.0,-999.0,76,0.00,,,0.00,235,Wunderground v.1.15,2013-01-12 13:20:00,
2013-01-12 07:25:00,60.6,53.0,29.74,SE,135,13.0,-999.0,76,0.00,,,0.00,256,Wunderground v.1.15,2013-01-12 13:25:00,
2013-01-12 07:30:00,60.7,52.7,29.74,SE,135,16.0,-999.0,75,0.00,,,0.00,276,Wunderground v.1.15,2013-01-12 13:30:00,
2013-01-12 07:35:00,61.2,53.2,29.74,ESE,113,13.0,-999.0,75,0.00,,,0.00,294,Wunderground v.1.15,2013-01-12 13:35:00,
2013-01-12 07:40:00,61.4,53.0,29.74,ESE,113,13.0,-999.0,74,0.00,,,0.00,312,Wunderground v.1.15,2013-01-12 13:40:00,
2013-01-12 07:45:00,61.7,53.0,29.74,SE,135,14.0,-999.0,73,0.00,,,0.00,331,Wunderground v.1.15,2013-01-12 13:45:00,
2013-01-12 07:50:00,61.8,53.1,29.74,SE,135,12.0,-999.0,73,0.00,,,0.00,350,Wunderground v.1.15,2013-01-12 13:50:00,
2013-01-12 07:55:00,61.8,53.4,29.74,SE,135,12.0,-999.0,74,0.00,,,0.00,370,Wunderground v.1.15,2013-01-12 13:55:00,
2013-01-12 08:00:00,61.8,53.8,29.74,SE,135,12.0,-999.0,75,0.00,,,0.00,389,Wunderground v.1.15,2013-01-12 14:00:00,
2013-01-12 08:05:00,62.1,53.3,29.75,SE,135,11.0,-999.0,73,0.00,,,0.00,405,Wunderground v.1.15,2013-01-12 14:05:00,
2013-01-12 08:10:00,62.2,53.8,29.74,SE,135,12.0,-999.0,74,0.00,,,0.00,422,Wunderground v.1.15,2013-01-12 14:10:00,
2013-01-12 08:15:00,62.6,53.8,29.74,SE,135,8.0,-999.0,73,0.00,,,0.00,441,Wunderground v.1.15,2013-01-12 14:15:00,
2013-01-12 08:20:00,62.9,54.1,29.74,SE,135,9.0,-999.0,73,0.00,,,0.00,459,Wunderground v.1.15,2013-01-12 14:20:00,
2013-01-12 08:25:00,63.2,53.6,29.75,SE,135,9.0,-999.0,71,0.00,,,0.00,478,Wunderground v.1.15,2013-01-12 14:25:00,
2013-01-12 08:30:00,63.4,54.2,29.74,ESE,113,9.0,-999.0,72,0.00,,,0.00,493,Wunderground v.1.15,2013-01-12 14:30:00,
2013-01-12 08:35:00,63.7,54.1,29.74,SE,135,11.0,-999.0,71,0.00,,,0.00,512,Wunderground v.1.15,2013-01-12 14:35:00,
2013-01-12 08:40:00,63.8,53.8,29.74,SE,135,10.0,-999.0,70,0.00,,,0.00,527,Wunderground v.1.15,2013-01-12 14:40:00,
2013-01-12 08:45:00,64.0,54.4,29.74,SE,135,10.0,-999.0,71,0.00,,,0.00,541,Wunderground v.1.15,2013-01-12 14:45:00,
2013-01-12 08:50:00,64.6,54.6,29.74,SE,135,6.0,-999.0,70,0.00,,,0.00,557,Wunderground v.1.15,2013-01-12 14:50:00,
2013-01-12 08:55:00,64.7,55.1,29.74,SE,135,11.0,-999.0,71,0.00,,,0.00,575,Wunderground v.1.15,2013-01-12 14:55:00,
2013-01-12 09:00:00,65.0,55.0,29.75,SE,135,6.0,-999.0,70,0.00,,,0.00,590,Wunderground v.1.15,2013-01-12 15:00:00,
2013-01-12 09:05:00,65.3,54.9,29.75,ESE,113,6.0,-999.0,69,0.00,,,0.00,605,Wunderground v.1.15,2013-01-12 15:05:00,
2013-01-12 09:10:00,65.6,55.2,29.75,SE,135,7.0,-999.0,69,0.00,,,0.00,619,Wunderground v.1.15,2013-01-12 15:10:00,
2013-01-12 09:15:00,65.8,55.3,29.74,SSE,158,3.0,-999.0,69,0.00,,,0.00,633,Wunderground v.1.15,2013-01-12 15:15:00,
2013-01-12 09:20:00,65.9,55.4,29.74,SE,135,7.0,-999.0,69,0.00,,,0.00,647,Wunderground v.1.15,2013-01-12 15:20:00,
2013-01-12 09:25:00,65.9,55.8,29.74,SSE,158,7.0,-999.0,70,0.00,,,0.00,660,Wunderground v.1.15,2013-01-12 15:25:00,
2013-01-12 09:30:00,66.6,56.5,29.74,ESE,113,3.0,-999.0,70,0.00,,,0.00,673,Wunderground v.1.15,2013-01-12 15:30:00,
2013-01-12 09:35:00,67.0,56.5,29.74,South,180,3.0,-999.0,69,0.00,,,0.00,686,Wunderground v.1.15,2013-01-12 15:35:00,
2013-01-12 09:40:00,67.2,56.7,29.74,WSW,248,3.0,-999.0,69,0.00,,,0.00,699,Wunderground v.1.15,2013-01-12 15:40:00,
2013-01-12 09:45:00,67.4,56.5,29.74,SW,225,4.0,-999.0,68,0.00,,,0.00,711,Wunderground v.1.15,2013-01-12 15:45:00,
2013-01-12 09:50:00,67.5,56.6,29.74,NW,315,2.0,-999.0,68,0.00,,,0.00,720,Wunderground v.1.15,2013-01-12 15:50:00,
2013-01-12 09:55:00,67.6,57.1,29.73,NNE,23,1.0,-999.0,69,0.00,,,0.00,730,Wunderground v.1.15,2013-01-12 15:55:00,
2013-01-12 10:00:00,67.6,56.2,29.74,NE,45,5.0,-999.0,67,0.00,,,0.00,744,Wunderground v.1.15,2013-01-12 16:00:00,
2013-01-12 10:05:00,66.7,56.2,29.74,East,90,5.0,-999.0,69,0.00,,,0.00,751,Wunderground v.1.15,2013-01-12 16:05:00,
2013-01-12 10:10:00,66.6,56.1,29.73,NE,45,3.0,-999.0,69,0.00,,,0.00,762,Wunderground v.1.15,2013-01-12 16:10:00,
2013-01-12 10:15:00,66.4,55.9,29.74,SE,135,6.0,-999.0,69,0.00,,,0.00,771,Wunderground v.1.15,2013-01-12 16:15:00,
2013-01-12 10:20:00,66.5,56.4,29.73,North,0,4.0,-999.0,70,0.00,,,0.00,781,Wunderground v.1.15,2013-01-12 16:20:00,
2013-01-12 10:25:00,66.9,56.4,29.73,ENE,68,5.0,-999.0,69,0.00,,,0.00,789,Wunderground v.1.15,2013-01-12 16:25:00,
2013-01-12 10:30:00,66.8,56.3,29.73,NE,45,5.0,-999.0,69,0.00,,,0.00,797,Wunderground v.1.15,2013-01-12 16:30:00,
2013-01-12 10:35:00,66.8,56.3,29.73,NNE,23,6.0,-999.0,69,0.00,,,0.00,805,Wunderground v.1.15,2013-01-12 16:35:00,
2013-01-12 10:40:00,66.6,56.5,29.73,NE,45,3.0,-999.0,70,0.00,,,0.00,812,Wunderground v.1.15,2013-01-12 16:40:00,
2013-01-12 10:45:00,66.8,56.3,29.72,East,90,4.0,-999.0,69,0.00,,,0.00,817,Wunderground v.1.15,2013-01-12 16:45:00,
2013-01-12 10:50:00,66.7,56.6,29.73,NNE,23,6.0,-999.0,70,0.00,,,0.00,824,Wunderground v.1.15,2013-01-12 16:50:00,
2013-01-12 10:55:00,67.1,56.6,29.72,NE,45,8.0,-999.0,69,0.00,,,0.00,829,Wunderground v.1.15,2013-01-12 16:55:00,
2013-01-12 11:00:00,67.2,56.7,29.71,North,0,6.0,-999.0,69,0.00,,,0.00,833,Wunderground v.1.15,2013-01-12 17:00:00,
2013-01-12 11:05:00,67.3,56.8,29.71,NNE,23,5.0,-999.0,69,0.00,,,0.00,838,Wunderground v.1.15,2013-01-12 17:05:00,
2013-01-12 11:10:00,67.5,57.4,29.71,NE,45,5.0,-999.0,70,0.00,,,0.00,844,Wunderground v.1.15,2013-01-12 17:10:00,
2013-01-12 11:15:00,67.8,57.3,29.71,NE,45,6.0,-999.0,69,0.00,,,0.00,847,Wunderground v.1.15,2013-01-12 17:15:00,
2013-01-12 11:20:00,67.7,57.2,29.71,NE,45,6.0,-999.0,69,0.00,,,0.00,849,Wunderground v.1.15,2013-01-12 17:20:00,
2013-01-12 11:25:00,67.8,57.7,29.71,North,0,6.0,-999.0,70,0.00,,,0.00,851,Wunderground v.1.15,2013-01-12 17:25:00,
2013-01-12 11:30:00,67.9,57.8,29.70,NNE,23,7.0,-999.0,70,0.00,,,0.00,853,Wunderground v.1.15,2013-01-12 17:30:00,
2013-01-12 11:35:00,67.8,58.1,29.70,NE,45,8.0,-999.0,71,0.00,,,0.00,854,Wunderground v.1.15,2013-01-12 17:35:00,
2013-01-12 11:40:00,67.9,57.8,29.71,NE,45,7.0,-999.0,70,0.00,,,0.00,854,Wunderground v.1.15,2013-01-12 17:40:00,
2013-01-12 11:45:00,67.9,58.1,29.70,NNE,23,6.0,-999.0,71,0.00,,,0.00,855,Wunderground v.1.15,2013-01-12 17:45:00,
2013-01-12 11:50:00,68.3,58.1,29.70,NE,45,6.0,-999.0,70,0.00,,,0.00,854,Wunderground v.1.15,2013-01-12 17:50:00,
2013-01-12 11:55:00,68.5,58.3,29.69,ENE,68,8.0,-999.0,70,0.00,,,0.00,855,Wunderground v.1.15,2013-01-12 17:55:00,
2013-01-12 12:00:00,68.9,58.7,29.69,NE,45,7.0,-999.0,70,0.00,,,0.00,854,Wunderground v.1.15,2013-01-12 18:00:00,
2013-01-12 12:05:00,69.1,58.9,29.69,ENE,68,6.0,-999.0,70,0.00,,,0.00,854,Wunderground v.1.15,2013-01-12 18:05:00,
2013-01-12 12:10:00,69.1,58.9,29.69,ENE,68,5.0,-999.0,70,0.00,,,0.00,850,Wunderground v.1.15,2013-01-12 18:10:00,
2013-01-12 12:15:00,69.4,59.2,29.69,NE,45,3.0,-999.0,70,0.00,,,0.00,849,Wunderground v.1.15,2013-01-12 18:15:00,
2013-01-12 12:20:00,69.4,58.8,29.68,ENE,68,4.0,-999.0,69,0.00,,,0.00,845,Wunderground v.1.15,2013-01-12 18:20:00,
2013-01-12 12:25:00,69.6,59.4,29.68,NE,45,4.0,-999.0,70,0.00,,,0.00,848,Wunderground v.1.15,2013-01-12 18:25:00,
2013-01-12 12:30:00,69.4,58.8,29.68,East,90,5.0,-999.0,69,0.00,,,0.00,841,Wunderground v.1.15,2013-01-12 18:30:00,
2013-01-12 12:35:00,69.3,59.5,29.68,NE,45,3.0,-999.0,71,0.00,,,0.00,842,Wunderground v.1.15,2013-01-12 18:35:00,
2013-01-12 12:40:00,69.6,59.4,29.68,NNE,23,3.0,-999.0,70,0.00,,,0.00,823,Wunderground v.1.15,2013-01-12 18:40:00,
2013-01-12 12:45:00,69.6,59.0,29.68,NNE,23,3.0,-999.0,69,0.00,,,0.00,853,Wunderground v.1.15,2013-01-12 18:45:00,
2013-01-12 12:50:00,69.7,59.1,29.68,NE,45,3.0,-999.0,69,0.00,,,0.00,833,Wunderground v.1.15,2013-01-12 18:50:00,
2013-01-12 12:55:00,69.5,59.7,29.68,East,90,3.0,-999.0,71,0.00,,,0.00,855,Wunderground v.1.15,2013-01-12 18:55:00,
2013-01-12 13:00:00,69.5,59.7,29.68,NE,45,4.0,-999.0,71,0.00,,,0.00,855,Wunderground v.1.15,2013-01-12 19:00:00,
2013-01-12 13:05:00,69.4,59.2,29.68,ENE,68,6.0,-999.0,70,0.00,,,0.00,827,Wunderground v.1.15,2013-01-12 19:05:00,
2013-01-12 13:10:00,69.0,58.8,29.68,NNE,23,4.0,-999.0,70,0.00,,,0.00,845,Wunderground v.1.15,2013-01-12 19:10:00,
2013-01-12 13:15:00,68.6,59.2,29.68,NNE,23,4.0,-999.0,72,0.00,,,0.00,841,Wunderground v.1.15,2013-01-12 19:15:00,
2013-01-12 13:20:00,68.6,59.6,29.67,ENE,68,3.0,-999.0,73,0.00,,,0.00,565,Wunderground v.1.15,2013-01-12 19:20:00,
2013-01-12 13:25:00,68.5,59.1,29.67,NNE,23,4.0,-999.0,72,0.00,,,0.00,688,Wunderground v.1.15,2013-01-12 19:25:00,
2013-01-12 13:30:00,68.7,59.3,29.67,NNE,23,4.0,-999.0,72,0.00,,,0.00,609,Wunderground v.1.15,2013-01-12 19:30:00,
2013-01-12 13:35:00,68.5,59.5,29.67,ESE,113,2.0,-999.0,73,0.00,,,0.00,818,Wunderground v.1.15,2013-01-12 19:35:00,
2013-01-12 13:40:00,68.5,59.1,29.67,NE,45,7.0,-999.0,72,0.00,,,0.00,775,Wunderground v.1.15,2013-01-12 19:40:00,
2013-01-12 13:45:00,68.5,58.3,29.67,ENE,68,6.0,-999.0,70,0.00,,,0.00,746,Wunderground v.1.15,2013-01-12 19:45:00,
2013-01-12 13:50:00,68.4,59.0,29.67,East,90,6.0,-999.0,72,0.00,,,0.00,733,Wunderground v.1.15,2013-01-12 19:50:00,
2013-01-12 13:55:00,68.1,58.7,29.67,East,90,5.0,-999.0,72,0.00,,,0.00,647,Wunderground v.1.15,2013-01-12 19:55:00,
2013-01-12 14:00:00,67.9,58.9,29.67,East,90,6.0,-999.0,73,0.00,,,0.00,540,Wunderground v.1.15,2013-01-12 20:00:00,
2013-01-12 14:05:00,68.0,59.4,29.67,East,90,4.0,-999.0,74,0.00,,,0.00,709,Wunderground v.1.15,2013-01-12 20:05:00,
2013-01-12 14:10:00,68.0,59.0,29.67,NE,45,5.0,-999.0,73,0.00,,,0.00,165,Wunderground v.1.15,2013-01-12 20:10:00,
2013-01-12 14:15:00,67.5,58.5,29.67,North,0,6.0,-999.0,73,0.00,,,0.00,142,Wunderground v.1.15,2013-01-12 20:15:00,
2013-01-12 14:20:00,67.4,58.4,29.67,NE,45,4.0,-999.0,73,0.00,,,0.00,498,Wunderground v.1.15,2013-01-12 20:20:00,
2013-01-12 14:25:00,67.5,58.5,29.67,SE,135,4.0,-999.0,73,0.00,,,0.00,176,Wunderground v.1.15,2013-01-12 20:25:00,
2013-01-12 14:30:00,67.5,59.3,29.67,NE,45,2.0,-999.0,75,0.00,,,0.00,534,Wunderground v.1.15,2013-01-12 20:30:00,
2013-01-12 14:35:00,67.5,58.9,29.67,East,90,5.0,-999.0,74,0.00,,,0.00,494,Wunderground v.1.15,2013-01-12 20:35:00,
2013-01-12 14:40:00,67.2,58.6,29.67,East,90,8.0,-999.0,74,0.00,,,0.00,595,Wunderground v.1.15,2013-01-12 20:40:00,
2013-01-12 14:45:00,66.7,58.5,29.67,NE,45,8.0,-999.0,75,0.00,,,0.00,478,Wunderground v.1.15,2013-01-12 20:45:00,
2013-01-12 14:50:00,66.7,58.5,29.67,ENE,68,9.0,-999.0,75,0.00,,,0.00,557,Wunderground v.1.15,2013-01-12 20:50:00,
2013-01-12 14:55:00,66.4,58.6,29.67,ENE,68,9.0,-999.0,76,0.00,,,0.00,554,Wunderground v.1.15,2013-01-12 20:55:00,
2013-01-12 15:00:00,66.3,58.5,29.67,ENE,68,8.0,-999.0,76,0.00,,,0.00,533,Wunderground v.1.15,2013-01-12 21:00:00,
2013-01-12 15:05:00,66.1,58.7,29.67,NE,45,5.0,-999.0,77,0.00,,,0.00,195,Wunderground v.1.15,2013-01-12 21:05:00,
2013-01-12 15:10:00,65.8,58.4,29.67,East,90,6.0,-999.0,77,0.00,,,0.00,222,Wunderground v.1.15,2013-01-12 21:10:00,
2013-01-12 15:15:00,65.7,58.7,29.67,NE,45,9.0,-999.0,78,0.00,,,0.00,435,Wunderground v.1.15,2013-01-12 21:15:00,
2013-01-12 15:20:00,65.6,58.6,29.67,NE,45,8.0,-999.0,78,0.00,,,0.00,285,Wunderground v.1.15,2013-01-12 21:20:00,
2013-01-12 15:25:00,65.3,58.6,29.67,NE,45,7.0,-999.0,79,0.00,,,0.00,144,Wunderground v.1.15,2013-01-12 21:25:00,
2013-01-12 15:30:00,65.1,58.8,29.67,NE,45,7.0,-999.0,80,0.00,,,0.00,127,Wunderground v.1.15,2013-01-12 21:30:00,
2013-01-12 15:35:00,64.9,58.2,29.67,NE,45,9.0,-999.0,79,0.00,,,0.00,108,Wunderground v.1.15,2013-01-12 21:35:00,
2013-01-12 15:40:00,64.8,58.5,29.67,NE,45,7.0,-999.0,80,0.00,,,0.00,140,Wunderground v.1.15,2013-01-12 21:40:00,
2013-01-12 15:45:00,64.8,58.5,29.67,NNE,23,10.0,-999.0,80,0.00,,,0.00,156,Wunderground v.1.15,2013-01-12 21:45:00,
2013-01-12 15:50:00,64.7,58.4,29.67,NE,45,8.0,-999.0,80,0.00,,,0.00,196,Wunderground v.1.15,2013-01-12 21:50:00,
2013-01-12 15:55:00,64.7,58.4,29.67,NE,45,11.0,-999.0,80,0.00,,,0.00,189,Wunderground v.1.15,2013-01-12 21:55:00,
2013-01-12 16:00:00,64.4,58.4,29.67,NE,45,10.0,-999.0,81,0.00,,,0.00,145,Wunderground v.1.15,2013-01-12 22:00:00,
2013-01-12 16:05:00,64.2,58.6,29.68,NE,45,9.0,-999.0,82,0.00,,,0.00,126,Wunderground v.1.15,2013-01-12 22:05:00,
2013-01-12 16:10:00,64.0,58.4,29.68,NE,45,10.0,-999.0,82,0.00,,,0.00,98,Wunderground v.1.15,2013-01-12 22:10:00,
2013-01-12 16:15:00,63.6,58.3,29.68,NE,45,9.0,-999.0,83,0.00,,,0.00,62,Wunderground v.1.15,2013-01-12 22:15:00,
2013-01-12 16:20:00,63.3,58.0,29.68,NE,45,9.0,-999.0,83,0.00,,,0.00,55,Wunderground v.1.15,2013-01-12 22:20:00,
2013-01-12 16:25:00,63.2,58.3,29.68,NE,45,7.0,-999.0,84,0.00,,,0.00,56,Wunderground v.1.15,2013-01-12 22:25:00,
2013-01-12 16:30:00,63.1,58.2,29.68,ENE,68,7.0,-999.0,84,0.00,,,0.00,48,Wunderground v.1.15,2013-01-12 22:30:00,
2013-01-12 16:35:00,63.0,58.1,29.68,ENE,68,7.0,-999.0,84,0.00,,,0.00,45,Wunderground v.1.15,2013-01-12 22:35:00,
2013-01-12 16:40:00,62.9,58.0,29.68,NE,45,4.0,-999.0,84,0.00,,,0.00,42,Wunderground v.1.15,2013-01-12 22:40:00,
2013-01-12 16:45:00,62.7,57.8,29.68,NE,45,7.0,-999.0,84,0.00,,,0.00,39,Wunderground v.1.15,2013-01-12 22:45:00,
2013-01-12 16:50:00,62.6,58.0,29.68,NE,45,4.0,-999.0,85,0.00,,,0.00,32,Wunderground v.1.15,2013-01-12 22:50:00,
2013-01-12 16:55:00,62.4,57.8,29.69,NE,45,4.0,-999.0,85,0.00,,,0.00,29,Wunderground v.1.15,2013-01-12 22:55:00,
2013-01-12 17:00:00,62.3,58.1,29.68,North,0,5.0,-999.0,86,0.00,,,0.00,25,Wunderground v.1.15,2013-01-12 23:00:00,
2013-01-12 17:05:00,62.2,57.6,29.68,ESE,113,1.0,-999.0,85,0.00,,,0.00,26,Wunderground v.1.15,2013-01-12 23:05:00,
2013-01-12 17:10:00,62.2,57.6,29.68,NE,45,3.0,-999.0,85,0.00,,,0.00,19,Wunderground v.1.15,2013-01-12 23:10:00,
2013-01-12 17:15:00,62.2,57.6,29.68,ESE,113,1.0,-999.0,85,0.00,,,0.00,15,Wunderground v.1.15,2013-01-12 23:15:00,
2013-01-12 17:20:00,62.1,57.5,29.69,ESE,113,1.0,-999.0,85,0.00,,,0.00,12,Wunderground v.1.15,2013-01-12 23:20:00,
2013-01-12 17:25:00,62.0,57.8,29.69,North,0,3.0,-999.0,86,0.00,,,0.00,10,Wunderground v.1.15,2013-01-12 23:25:00,
2013-01-12 17:30:00,61.7,57.8,29.69,NE,45,7.0,-999.0,87,0.00,,,0.00,6,Wunderground v.1.15,2013-01-12 23:30:00,
2013-01-12 17:35:00,61.8,57.6,29.69,ENE,68,2.0,-999.0,86,0.00,,,0.00,3,Wunderground v.1.15,2013-01-12 23:35:00,
2013-01-12 17:40:00,61.7,57.5,29.70,NNW,338,0.0,-999.0,86,0.00,,,0.00,0,Wunderground v.1.15,2013-01-12 23:40:00,
2013-01-12 17:45:00,61.6,57.7,29.70,North,0,2.0,-999.0,87,0.00,,,0.00,0,Wunderground v.1.15,2013-01-12 23:45:00,
2013-01-12 17:50:00,61.4,57.8,29.70,NW,315,2.0,-999.0,88,0.00,,,0.00,0,Wunderground v.1.15,2013-01-12 23:50:00,
2013-01-12 17:55:00,61.4,57.8,29.71,NNW,338,1.0,-999.0,88,0.00,,,0.00,0,Wunderground v.1.15,2013-01-12 23:55:00,
2013-01-12 18:00:00,61.3,57.7,29.70,NE,45,1.0,-999.0,88,0.00,,,0.00,0,Wunderground v.1.15,2013-01-13 00:00:00,
2013-01-12 18:05:00,61.4,57.8,29.71,ENE,68,3.0,-999.0,88,0.00,,,0.00,0,Wunderground v.1.15,2013-01-13 00:05:00,
2013-01-12 18:10:00,61.1,57.8,29.72,East,90,6.0,-999.0,89,0.00,,,0.00,0,Wunderground v.1.15,2013-01-13 00:10:00,
2013-01-12 18:15:00,60.8,57.5,29.72,NE,45,2.0,-999.0,89,0.00,,,0.00,0,Wunderground v.1.15,2013-01-13 00:15:00,
2013-01-12 18:20:00,60.6,57.7,29.71,North,0,3.0,-999.0,90,0.00,,,0.00,0,Wunderground v.1.15,2013-01-13 00:20:00,
2013-01-12 18:25:00,60.6,57.7,29.71,SE,135,1.0,-999.0,90,0.00,,,0.00,0,Wunderground v.1.15,2013-01-13 00:25:00,
2013-01-12 18:30:00,60.5,57.6,29.71,NNE,23,2.0,-999.0,90,0.00,,,0.00,0,Wunderground v.1.15,2013-01-13 00:30:00,
2013-01-12 18:35:00,60.4,57.5,29.71,NE,45,1.0,-999.0,90,0.00,,,0.00,0,Wunderground v.1.15,2013-01-13 00:35:00,
2013-01-12 18:40:00,60.5,57.6,29.71,NE,45,6.0,-999.0,90,0.00,,,0.00,0,Wunderground v.1.15,2013-01-13 00:40:00,
2013-01-12 18:45:00,60.4,57.5,29.71,NE,45,6.0,-999.0,90,0.00,,,0.00,0,Wunderground v.1.15,2013-01-13 00:45:00,
2013-01-12 18:50:00,60.3,57.7,29.72,NE,45,5.0,-999.0,91,0.00,,,0.00,0,Wunderground v.1.15,2013-01-13 00:50:00,
2013-01-12 18:55:00,60.2,57.6,29.72,North,0,4.0,-999.0,91,0.00,,,0.00,0,Wunderground v.1.15,2013-01-13 00:55:00,
2013-01-12 19:00:00,60.0,57.4,29.72,NE,45,6.0,-999.0,91,0.00,,,0.00,0,Wunderground v.1.15,2013-01-13 01:00:00,
2013-01-12 19:05:00,60.0,57.4,29.72,NNE,23,5.0,-999.0,91,0.00,,,0.00,0,Wunderground v.1.15,2013-01-13 01:05:00,
2013-01-12 19:10:00,60.0,57.7,29.72,NE,45,2.0,-999.0,92,0.00,,,0.00,0,Wunderground v.1.15,2013-01-13 01:10:00,
2013-01-12 19:15:00,59.9,57.3,29.72,ENE,68,4.0,-999.0,91,0.00,,,0.00,0,Wunderground v.1.15,2013-01-13 01:15:00,
2013-01-12 19:20:00,59.8,57.2,29.72,NE,45,6.0,-999.0,91,0.00,,,0.00,0,Wunderground v.1.15,2013-01-13 01:20:00,
2013-01-12 19:25:00,59.6,57.0,29.73,ENE,68,8.0,-999.0,91,0.00,,,0.00,0,Wunderground v.1.15,2013-01-13 01:25:00,
2013-01-12 19:30:00,59.4,56.8,29.72,NE,45,6.0,-999.0,91,0.00,,,0.00,0,Wunderground v.1.15,2013-01-13 01:30:00,
2013-01-12 19:35:00,59.2,56.6,29.72,ENE,68,3.0,-999.0,91,0.00,,,0.00,0,Wunderground v.1.15,2013-01-13 01:35:00,
2013-01-12 19:40:00,59.0,56.1,29.72,NE,45,3.0,-999.0,90,0.00,,,0.00,0,Wunderground v.1.15,2013-01-13 01:40:00,
2013-01-12 19:45:00,58.9,56.0,29.73,North,0,3.0,-999.0,90,0.00,,,0.00,0,Wunderground v.1.15,2013-01-13 01:45:00,
2013-01-12 19:50:00,58.9,55.7,29.73,WNW,293,2.0,-999.0,89,0.00,,,0.00,0,Wunderground v.1.15,2013-01-13 01:50:00,
2013-01-12 19:55:00,58.9,55.7,29.72,South,180,3.0,-999.0,89,0.00,,,0.00,0,Wunderground v.1.15,2013-01-13 01:55:00,
2013-01-12 20:00:00,59.0,55.8,29.73,SE,135,2.0,-999.0,89,0.00,,,0.00,0,Wunderground v.1.15,2013-01-13 02:00:00,
2013-01-12 20:05:00,59.0,55.8,29.73,SE,135,2.0,-999.0,89,0.00,,,0.00,0,Wunderground v.1.15,2013-01-13 02:05:00,
2013-01-12 20:10:00,59.0,55.8,29.73,SSW,203,2.0,-999.0,89,0.00,,,0.00,0,Wunderground v.1.15,2013-01-13 02:10:00,
2013-01-12 20:15:00,59.1,56.2,29.74,SSW,203,1.0,-999.0,90,0.00,,,0.00,0,Wunderground v.1.15,2013-01-13 02:15:00,
2013-01-12 20:20:00,59.2,56.3,29.73,SSW,203,1.0,-999.0,90,0.00,,,0.00,0,Wunderground v.1.15,2013-01-13 02:20:00,
2013-01-12 20:25:00,59.1,56.2,29.73,East,90,2.0,-999.0,90,0.00,,,0.00,0,Wunderground v.1.15,2013-01-13 02:25:00,
2013-01-12 20:30:00,59.2,56.3,29.73,ESE,113,1.0,-999.0,90,0.00,,,0.00,0,Wunderground v.1.15,2013-01-13 02:30:00,
2013-01-12 20:35:00,59.2,56.3,29.73,East,90,0.0,-999.0,90,0.00,,,0.00,0,Wunderground v.1.15,2013-01-13 02:35:00,
2013-01-12 20:40:00,59.1,56.2,29.73,ENE,68,4.0,-999.0,90,0.00,,,0.00,0,Wunderground v.1.15,2013-01-13 02:40:00,
2013-01-12 20:45:00,58.9,56.0,29.73,NE,45,3.0,-999.0,90,0.00,,,0.00,0,Wunderground v.1.15,2013-01-13 02:45:00,
2013-01-12 20:50:00,58.9,56.0,29.73,NNE,23,4.0,-999.0,90,0.00,,,0.00,0,Wunderground v.1.15,2013-01-13 02:50:00,
2013-01-12 20:55:00,58.9,56.0,29.73,NNE,23,2.0,-999.0,90,0.00,,,0.00,0,Wunderground v.1.15,2013-01-13 02:55:00,
2013-01-12 21:00:00,58.9,56.0,29.73,NE,45,2.0,-999.0,90,0.00,,,0.00,0,Wunderground v.1.15,2013-01-13 03:00:00,
2013-01-12 21:05:00,58.9,56.3,29.74,NE,45,0.0,-999.0,91,0.00,,,0.00,0,Wunderground v.1.15,2013-01-13 03:05:00,
2013-01-12 21:10:00,58.9,56.3,29.74,NE,45,0.0,-999.0,91,0.00,,,0.00,0,Wunderground v.1.15,2013-01-13 03:10:00,
2013-01-12 21:15:00,58.9,56.3,29.74,NE,45,1.0,-999.0,91,0.00,,,0.00,0,Wunderground v.1.15,2013-01-13 03:15:00,
2013-01-12 21:20:00,58.7,56.1,29.74,North,0,0.0,-999.0,91,0.00,,,0.00,0,Wunderground v.1.15,2013-01-13 03:20:00,
2013-01-12 21:25:00,58.8,56.2,29.74,SE,135,1.0,-999.0,91,0.00,,,0.00,0,Wunderground v.1.15,2013-01-13 03:25:00,
2013-01-12 21:30:00,58.7,56.1,29.75,SSE,158,1.0,-999.0,91,0.00,,,0.00,0,Wunderground v.1.15,2013-01-13 03:30:00,
2013-01-12 21:35:00,58.5,55.6,29.75,North,0,1.0,-999.0,90,0.00,,,0.00,0,Wunderground v.1.15,2013-01-13 03:35:00,
2013-01-12 21:40:00,58.4,55.8,29.74,NNE,23,0.0,-999.0,91,0.00,,,0.00,0,Wunderground v.1.15,2013-01-13 03:40:00,
2013-01-12 21:45:00,58.3,55.7,29.74,ENE,68,1.0,-999.0,91,0.00,,,0.00,0,Wunderground v.1.15,2013-01-13 03:45:00,
2013-01-12 21:50:00,58.3,55.7,29.75,ENE,68,1.0,-999.0,91,0.00,,,0.00,0,Wunderground v.1.15,2013-01-13 03:50:00,
2013-01-12 21:55:00,58.3,55.7,29.75,ESE,113,1.0,-999.0,91,0.00,,,0.00,0,Wunderground v.1.15,2013-01-13 03:55:00,
2013-01-12 22:00:00,58.2,55.6,29.75,South,180,2.0,-999.0,91,0.00,,,0.00,0,Wunderground v.1.15,2013-01-13 04:00:00,
2013-01-12 22:05:00,58.1,55.5,29.75,NE,45,1.0,-999.0,91,0.00,,,0.00,0,Wunderground v.1.15,2013-01-13 04:05:00,
2013-01-12 22:10:00,58.1,55.2,29.75,SSE,158,2.0,-999.0,90,0.00,,,0.00,0,Wunderground v.1.15,2013-01-13 04:10:00,
2013-01-12 22:15:00,58.1,55.2,29.76,SE,135,3.0,-999.0,90,0.00,,,0.00,0,Wunderground v.1.15,2013-01-13 04:15:00,
2013-01-12 22:20:00,58.1,55.2,29.75,SSE,158,5.0,-999.0,90,0.00,,,0.00,0,Wunderground v.1.15,2013-01-13 04:20:00,
2013-01-12 22:25:00,58.1,55.2,29.76,SE,135,5.0,-999.0,90,0.00,,,0.00,0,Wunderground v.1.15,2013-01-13 04:25:00,
2013-01-12 22:30:00,58.2,55.3,29.76,SSE,158,7.0,-999.0,90,0.00,,,0.00,0,Wunderground v.1.15,2013-01-13 04:30:00,
2013-01-12 22:35:00,58.2,55.3,29.76,South,180,3.0,-999.0,90,0.00,,,0.00,0,Wunderground v.1.15,2013-01-13 04:35:00,
2013-01-12 22:40:00,58.3,55.4,29.75,SE,135,5.0,-999.0,90,0.00,,,0.00,0,Wunderground v.1.15,2013-01-13 04:40:00,
2013-01-12 22:45:00,58.4,55.5,29.75,ESE,113,2.0,-999.0,90,0.00,,,0.00,0,Wunderground v.1.15,2013-01-13 04:45:00,
2013-01-12 22:50:00,58.5,55.6,29.76,ESE,113,2.0,-999.0,90,0.00,,,0.00,0,Wunderground v.1.15,2013-01-13 04:50:00,
2013-01-12 22:55:00,58.5,55.6,29.75,East,90,1.0,-999.0,90,0.00,,,0.00,0,Wunderground v.1.15,2013-01-13 04:55:00,
2013-01-12 23:00:00,58.4,55.5,29.75,ENE,68,0.0,-999.0,90,0.00,,,0.00,0,Wunderground v.1.15,2013-01-13 05:00:00,
2013-01-12 23:05:00,58.5,55.3,29.75,ESE,113,6.0,-999.0,89,0.00,,,0.00,0,Wunderground v.1.15,2013-01-13 05:05:00,
2013-01-12 23:10:00,58.6,55.4,29.75,East,90,4.0,-999.0,89,0.00,,,0.00,0,Wunderground v.1.15,2013-01-13 05:10:00,
2013-01-12 23:15:00,58.6,55.4,29.75,SE,135,2.0,-999.0,89,0.00,,,0.00,0,Wunderground v.1.15,2013-01-13 05:15:00,
2013-01-12 23:20:00,58.8,55.6,29.76,SE,135,2.0,-999.0,89,0.00,,,0.00,0,Wunderground v.1.15,2013-01-13 05:20:00,
2013-01-12 23:25:00,58.8,55.3,29.75,SE,135,2.0,-999.0,88,0.00,,,0.00,0,Wunderground v.1.15,2013-01-13 05:25:00,
2013-01-12 23:30:00,58.7,55.2,29.75,NE,45,1.0,-999.0,88,0.00,,,0.00,0,Wunderground v.1.15,2013-01-13 05:30:00,
2013-01-12 23:35:00,58.6,55.4,29.75,NE,45,2.0,-999.0,89,0.00,,,0.00,0,Wunderground v.1.15,2013-01-13 05:35:00,
2013-01-12 23:40:00,58.4,54.9,29.75,SE,135,3.0,-999.0,88,0.00,,,0.00,0,Wunderground v.1.15,2013-01-13 05:40:00,
2013-01-12 23:45:00,58.4,55.2,29.75,SSE,158,4.0,-999.0,89,0.00,,,0.00,0,Wunderground v.1.15,2013-01-13 05:45:00,
2013-01-12 23:50:00,58.4,55.2,29.75,East,90,3.0,-999.0,89,0.00,,,0.00,0,Wunderground v.1.15,2013-01-13 05:50:00,
2013-01-12 23:55:00,58.5,55.0,29.75,ESE,113,2.0,-999.0,88,0.00,,,0.00,0,Wunderground v.1.15,2013-01-13 05:55:00,